sat.trackr.live / text

‹ back to catalog

BRO-12

NORAD 59108 · 2024-043L

PAYLOAD ACTIVE UNKNOWN

§ Identity

Operator
Country
FR
Launch date
2024-03-04
Launch site
AFWTR
Launch vehicle
Mass (kg)
RCS (m²)

External: N2YO · Heavens-Above · Gunter

§ Orbital elements

Epoch: 2026-09-22T22:46:30.892224Z

Period
96.19 min
Inclination
97.8611°
Eccentricity
0.0008983
Mean motion
14.97022152 rev/d
Perigee alt
569.9 km
Apogee alt
582.4 km
Semi-major
6,954.2 km
B*
2.3809e-5
RAAN
37.5449°
Arg perigee
34.1250°
Mean anomaly
326.0547°
Rev number
13,926

§ Raw data

BRO-121 59108U 24043L   26265.94896866  .00000214  00000+0  23809-4 0  99952 59108  97.8611  37.5449 0008983  34.1250 326.0547 14.97022152139263

JSON: /api/v1/satellites/59108 · /tle

For live sub-satellite position, see the globe view (requires WebGL).

§ Visibility from observer

Set your observer location to see the next 7 days of passes ≥ 10°. The values pass through the URL so the page stays shareable.

No JS? Fill the form by hand. The geolocation button needs JavaScript.

§ Radio — SatNOGS DB

ModeDescriptionDownlinkUplink
BPSK Mode S - Transmitter 2.261 GHz
FSK AX.100 Mode 5 Mode U - FSK4k8 - TLM 401.735 MHz
FSK AX.100 Mode 5 Mode U - FSK9k6 - TLM 401.735 MHz

3 transmitters · refreshed weekly from db.satnogs.org